STARLINK-11192, 60308

Orbit data source: Space-Track

STARLINK-11192, 60308 is a payload satellite owned by SpaceX/Seattle (US) in LEO that was launched on Sun, 28 Jul 2024 UTC via an FALCON 9 launch vehicle from the Air Force Western Test Range (AFWTR). Payload-class satellites include a variety of spacecraft equipped with specific instruments for various scientific and technological missions. These include communications satellites like Starlink; space stations such as the ISS; scientific satellites like the Hubble; Earth observation satellites from companies like Planet Labs, Umbra, and HawkEye 360; GPS; miniature CubeSats for education and research; and military/defense satellites.

Loading next visibility...
Identifier
60308, 2024-133H
Orbit
LEO
Country
Flag of USUS
Related business
Manufacturer
SpaceX/Seattle
Mission
Operational Commercial Communications
Bus & Motor
STARLINK V2MD, Unknown motor
Mass
960 kg wet, ~910 kg dry
Launch date (UTC)
2024-07-28 (2 years ago)
Launch vehicle
FALCON 9
Launch site
Air Force Western Test Range (AFWTR)
Object type
Payload
Rocket body
Debris
Shape & HBR
Box + 2 Pan, 18.1 m
Radar Cross Section
36.964 m², Large (>1 m²)

Expand to show TLE details & history
Last TLE update: 1 day ago

TLE from 1 day ago
0 STARLINK-11192
1 60308U 24133H   26170.80175833  .00000227  00000-0  67291-5 0  9992
2 60308  53.1589   2.7231 0001048  80.2582 279.8554 15.69704292109772
Epoch: 2026-06-19T19:14Z
TLE epoch observation values (Epoch: 2026-06-19T19:14:31.919Z)
Latitude
-0.00005°
Longitude
166.06455°
Altitude
360.537 km
Speed
7.694 km/s
True Right ascension
00h 10m 53s
True Declination
0° 00' 00"
Sunlit
Object was in daylight at epoch
Visualization orbit readout
Latitude
Unknown
Longitude
Unknown
Altitude
Unknown
Speed
Unknown
Apparent Right ascension
Unknown
Apparent Declination
Unknown
Sunlit
N/A
Visualization observer readout
Local Sidereal Time
07:14:03
Azimuth
Unknown
Elevation
Unknown
Doppler factor
Unknown
Orbital elements
Apogee altitude
360.71 km
Perigee altitude
359.298 km
Semi-major axis
6,738.141 km
Eccentricity
0.0001
Inclination
53.1589°
RAAN
2.7231°
Arg. of periapsis
80.2582°
True anomaly
279.84357°
Mean anomaly
279.8554°
Eccentric anomaly
279.84948°
Mean motion
3.92404 °/min
Orbital period
91.74 mins
BSTAR
0.0000067291
Loading maneuver chart data...
Computing Atmospheric mass density...
Loading historical data...
Loading historical data...
Loading historical data...
Loading historical data...
Loading historical data...
Loading historical data...
Loading historical data...

Documentation

Showing up to 5 results
|